Hourly Data Report for July 04, 2022

WINNIPEG THE FORKS
MANITOBA
Current Station Operator: ECCC - MSC

49°53'18.008" N
97°07'46.007" W
230.00 m
5023262
71579
XWN

Download Data

Hourly Data (July 2022)
Hourly Data Report for July 4, 2022
TIME
LST
Temp Definition
°C
Dew Point Definition
°C
Rel Hum Definition
%
Precip. Amount Definition
mm

Wind Dir Definition
10's deg

Wind Spd Definition
km/h
Visibility Definition
km
Stn Press Definition
kPa
Hmdx Definition


Wind Chill Definition


Weather Definition


00:00 19.1 16.9 87 1.9 5 4   98.51     LegendNANA
01:00 18.7 16.6 88 0.8 9 3   98.56     LegendNANA
02:00 18.4 16.8 91 2.2 23 2   98.56     LegendNANA
03:00 18.3 17.1 93 1.6 6 2   98.49     LegendNANA
04:00 18.1 16.3 89 0.0 6 4   98.38     LegendNANA
05:00 17.9 16.7 93 0.0 4 5   98.41     LegendNANA
06:00 16.8 14.8 88 0.0 4 8   98.42     LegendNANA
07:00 17.1 14.2 83 0.0 5 6   98.33     LegendNANA
08:00 18.2 15.0 81 0.0 5 4   98.37     LegendNANA
09:00 19.2 15.1 78 0.0 5 5   98.39     LegendNANA
10:00 19.8 15.7 77 0.0 5 4   98.39     LegendNANA
11:00 19.8 16.5 82 0.2 4 5   98.36     LegendNANA
12:00 19.5 17.5 88 1.0 4 3   98.44     LegendNANA
13:00 19.5 18.0 91 1.8 1 7   98.43     LegendNANA
14:00 19.5 18.1 92 2.2 2 8   98.45     LegendNANA
15:00 19.5 18.4 93 1.7 3 8   98.43     LegendNANA
16:00 19.3 18.1 93 0.7 35 5   98.44     LegendNANA
17:00 19.7 18.5 93 0.0 2 5   98.44     LegendNANA
18:00 19.8 18.2 90 0.0 4 5   98.46     LegendNANA
19:00 19.7 17.9 90 0.0 3 8   98.45     LegendNANA
20:00 19.3 17.4 88 0.0 3 4   98.52     LegendNANA
21:00 18.8 16.9 89 0.0 2 5   98.55     LegendNANA
22:00 18.4 16.6 89 0.0 2 4   98.59     LegendNANA
23:00 18.0 16.6 91 0.1 35 4   98.61     LegendNANA

Notes on Data Quality.

Legend

  • E = Estimated
  • M = Missing
  • NA = Not Available*
  • [empty] = Indicates an unobserved value
Date modified: